This is the latest recevied weather packets stored in our database for station/object OM8AKX-4. If no packets are shown the sender has not sent any weather packets the latest 10 day(s).
| Time | Temp. | Humidity | Pressure | Rain* | Wind** | Luminosity | Snow |
|---|---|---|---|---|---|---|---|
| 1777918327 | 11.11° C | 40% | 877.5 hPa | - | - | - | - |
| 1777917427 | 11.67° C | 40% | 877.5 hPa | - | - | - | - |
| 1777915626 | 12.22° C | 39% | 877.4 hPa | - | - | - | - |
| 1777914726 | 12.78° C | 38% | 877.4 hPa | - | - | - | - |
| 1777913826 | 12.78° C | 38% | 877.3 hPa | - | - | - | - |
| 1777911126 | 14.44° C | 36% | 877.5 hPa | - | - | - | - |
| 1777910226 | 14.44° C | 35% | 877.6 hPa | - | - | - | - |
| 1777909325 | 14.44° C | 35% | 877.6 hPa | - | - | - | - |
| 1777908425 | 15° C | 34% | 877.7 hPa | - | - | - | - |
| 1777907525 | 15° C | 34% | 877.8 hPa | - | - | - | - |
| 1777906625 | 15° C | 35% | 877.8 hPa | - | - | - | - |
| 1777905725 | 15.56° C | 35% | 877.9 hPa | - | - | - | - |
| 1777903924 | 15.56° C | 36% | 878.1 hPa | - | - | - | - |
| 1777901224 | 15° C | 34% | 878.3 hPa | - | - | - | - |
| 1777900326 | 15° C | 33% | 878.4 hPa | - | - | - | - |
| 1777897626 | 14.44° C | 33% | 878.8 hPa | - | - | - | - |
| 1777896726 | 14.44° C | 32% | 878.8 hPa | - | - | - | - |
| 1777895826 | 14.44° C | 32% | 878.9 hPa | - | - | - | - |
| 1777894026 | 14.44° C | 34% | 878.9 hPa | - | - | - | - |
| 1777893126 | 14.44° C | 33% | 878.9 hPa | - | - | - | - |
| 1777892226 | 13.89° C | 34% | 879 hPa | - | - | - | - |
| 1777889526 | 13.33° C | 35% | 879.4 hPa | - | - | - | - |
| 1777888625 | 13.33° C | 35% | 879.4 hPa | - | - | - | - |
| 1777886825 | 12.78° C | 37% | 879.6 hPa | - | - | - | - |
| 1777885925 | 12.78° C | 38% | 879.7 hPa | - | - | - | - |
* Rain since midnight (hover to see other rain measurements)
** Current wind speed in m/s (hover to see current wind gust speed)